Location: Corcelles
(46.1547°N, 4.7234°E)
Time: 04:42:11
(UTC+00:00)

Cosmos 468 Rocket - Pass Details

Date: 14 July 2020
Orbit: 743 x 780 km, 74.0° (Epoch: 06 August)

Event Time Altitude Azimuth Distance (km) Brightness Sun altitude
Rises 02:33:26 0° 337° (NNW) 3,266 7.7 -12.5°
Reaches altitude 10° 02:35:50 10° 338° (NNW) 2,338 6.9 -12.2°
Maximum altitude 02:41:10 88° 249° (WSW) 787 4.0 -11.6°
Drops below altitude 10° 02:46:28 10° 161° (SSE) 2,328 6.2 -11.0°
Sets 02:48:51 0° 161° (SSE) 3,250 7.0 -10.7°
